Orbital Elements at Epoch 2459200.5 (2020-Dec-17.0) TDB
Reference: JPL 17 (heliocentric ecliptic J2000)
Element | Value | Uncertainty (1-sigma) | Units |
e | .03836729085757042 | 5.4645e-08 | |
a | 2.650629894485526 | 1.7227e-08 | au |
q | 2.548932406368028 | 1.4246e-07 | au |
i | 2.204692246649342 | 4.6174e-06 | deg |
node | 108.6964657443964 | 0.00016192 | deg |
peri | 119.5009512928124 | 0.00017426 | deg |
M | 312.3779916689603 | 6.2959e-05 | deg |
tp | 2459409.010183452720 (2021-Jul-13.51018345) | 0.00027542 | TDB |
period | 1576.238984319634 4.32 | 1.5366e-05 4.207e-08 | d yr |
n | .2283917626586238 | 2.2265e-09 | deg/d |
Q | 2.752327382603023 | 1.7888e-08 | au |
|
| | Orbit Determination Parameters
Additional Information
|